Regional Weather Roundup
Issued by NWS

Home | Current Version | Previous Version | Text Only | Print | Product List | Glossary Off
Versions: 1 2 3 4 5 6 7 8 9 10 11 12 13 14 15 16 17 18 19 20 21 22 23 24 25 26 27 28 29 30 31 32 33 34 35 36 37 38 39 40 41 42 43 44 45 46 47 48 49 50

000
ASUS45 KTFX 280819
RWRMT
MONTANA HOURLY WEATHER ROUNDUP
NATIONAL WEATHER SERVICE GREAT FALLS MT
119 AM MST SAT FEB 28 2015

NOTE: "FAIR" INDICATES FEW OR NO CLOUDS BELOW 12000 FEET WITH NO
SIGNIFICANT WEATHER AND/OR OBSTRUCTIONS TO VISIBILITY.

* THESE STATIONS ARE NOT UNDER NWS QUALITY CONTROL. THEY DO NOT
   REPORT WEATHER SUCH AS PRECIPITATION OR FOG.

MTZ001>007-043-280900-
WEST OF THE DIVIDE
CITY           SKY/WX    TMP DP  RH WIND       PRES   REMARKS
KALISPELL      CLEAR     21   7  55 NE20G26   30.05R WCI   6
MISSOULA       CLOUDY    25   7  46 E16G23    30.00S WCI  12
BUTTE          CLOUDY    12   9  88 W3        29.90R
MULLAN PASS    PTCLDY    14   7  73 E9        29.79R WCI   2
* ANACONDA     CLOUDY    12   7  80 N13        N/A   WCI  -3
* ESSEX        N/A       10   3  73 SE2G8      N/A
* EUREKA APT   CLEAR     19   9  65 SW3       30.10R
* HAMILTON APT MOCLDY    25   9  50 NW14      29.92R WCI  13
* LIBBY APT    CLEAR     27   3  35 NE3       30.07R
* LINCOLN      N/A       12   3  67 E12G18     N/A   WCI  -2
* LOOKOUT PASS N/A       22   9  57 S4G9       N/A
* POLSON       N/A       22   6  50 NE4        N/A
* RONAN APT    PTCLDY    28   9  45 E8         N/A   WCI  20
* SEELEY LAKE  N/A       12   3  67 N2         N/A
* THOMP F APT  PTCLDY    19   9  65 NW5        N/A   WCI  12
* YAAK HILL    N/A       29   5  36 W2         N/A
$$

MTZ008-052>055-280900-
SOUTHWEST MONTANA
CITY           SKY/WX    TMP DP  RH WIND       PRES   REMARKS
BOZEMAN        CLOUDY    18   9  68 W5        29.97S WCI  11
DILLON         CLOUDY    16   7  67 NE22G28   29.86R WCI  -2
* W YELLOWSTON PTCLDY     3  -3  76 N/A        N/A
* THREE FORKS  MOCLDY    18   7  62 N10G20     N/A   WCI   6
* BOULDER HILL N/A        8   4  84 N14        N/A   WCI  -9
* MONIDA PASS  N/A       14   8  77 NE12       N/A
* RAYNOLDS PAS N/A        7   7 100 N9         N/A   WCI  -6
* WHITEHALL    N/A       17   6  62 NE6G12     N/A   WCI   8
* WISE RIVER   N/A       17   5  59 E12        N/A   WCI   4
$$

MTZ009>010-012-014-046-048-049-054-280900-
EAST SLOPES AND CENTRAL MONTANA
CITY           SKY/WX    TMP DP  RH WIND       PRES   REMARKS
CUT BANK       LGT SNOW  12   9  88 NW6       30.10S WCI   2
GREAT FALLS    LGT SNOW  16  12  84 NW3       30.10S VSB 2
HELENA         CLOUDY    18   9  68 W8        30.06S WCI   8
MALMSTROM AFB  LGT SNOW  14  12  92 N6        30.12S WCI   5
* CONRAD       CLEAR     14  10  84 N7         N/A   WCI   4
* DEARBORN     N/A       16  12  84 VRB3       N/A
* EAST GLACIER N/A       10   5  80 SE6        N/A
* MONARCH      N/A        7   3  83 NW8        N/A   WCI  -6
* PENDROY      N/A       12  10  92 N8         N/A
* ROGERS PASS  N/A        7   3  83 SW2        N/A
* SWEET GRASS  N/A        9   7  91 N6         N/A   WCI  -1
* WHITE SULPH  N/A        3  -2  79 E2         N/A
$$

MTZ011-013-016-021-035-040-045-047-050-051-280900-
NORTH CENTRAL MONTANA
CITY           SKY/WX    TMP DP  RH WIND       PRES   REMARKS
HAVRE          CLOUDY    12   7  80 W13       30.16R WCI  -3
LEWISTOWN      LGT SNOW  10   7  88 W7        30.06R WCI  -1
* N BAR RANCH  CLOUDY    10   5  80 NW22G29   30.00S WCI -10
* CHINOOK      CLEAR     14   9  80 W8        30.16S WCI   3
* FORT BENTON  PTCLDY    16   9  74 NW5       30.18S WCI   8
* CHESTER      N/A       12   5  73 E5         N/A   WCI   4
* DENTON       N/A       12   8  84 NW8        N/A
* GEYSER       N/A       12   6  77 W13G22     N/A   WCI  -3
* JUDITH GAP   N/A        9   7  91 N26G32     N/A   WCI -12
* LOMA         N/A       14   9  80 W4         N/A
$$

MTZ017>020-022>027-061-062-280900-
NORTHEAST MONTANA
CITY           SKY/WX    TMP DP  RH WIND       PRES   REMARKS
GLASGOW        MOCLDY     7   0  73 NW7       30.12R WCI  -5
GLENDIVE       CLEAR     10   5  80 NW16      30.04R WCI  -7
JORDAN         PTCLDY     5   1  83 W7        30.11R WCI  -7
SIDNEY         CLOUDY    12   3  67 NW20      30.08R WCI  -6
WOLF POINT     CLEAR     10  -2  58 W3        30.13R
* BEAVER HILL  N/A       11   6  80 W6         N/A   WCI   1
* CIRCLE       N/A        8   0  70 NW5G10     N/A   WCI  -1
* LINDSAY DVD  N/A        7   4  87 NW11       N/A   WCI  -8
* NAVAJO       N/A        0  -5  79 NW9G14     N/A   WCI -15
* PLENTYWOOD A PTCLDY    -2  -8  75 NW8       30.08R WCI -17
* POPLAR APT   CLEAR      9   0  66 N7        30.12R WCI  -2
* SACO         N/A       11   4  73 SW2        N/A
* SCOBEY APT   CLEAR     -2 -15  53 N/A        N/A
$$

MTZ028>042-056>058-280900-
SOUTHCENTRAL AND SOUTHEAST MONTANA
CITY           SKY/WX    TMP DP  RH WIND       PRES   REMARKS
BAKER          MOCLDY    10   7  88 W10       30.01R WCI  -4
BILLINGS       CLOUDY    16   7  67 S5        30.05S WCI   8
LIVINGSTON     CLOUDY    16   9  74 NE9       29.98R WCI   5
MILES CITY     CLEAR      7   3  83 NW7       30.08R WCI  -5
* BIG TIMBER A PTCLDY    14   7  73 CALM      30.00S
* FORSYTH APT  CLEAR     12   7  80 W5        30.10R WCI   4
* LAUREL APT   CLEAR     16   5  62 N/A        N/A
* ROUNDUP APT  CLEAR     16   3  56 N/A        N/A
* ALZADA       N/A       11   6  80 W5         N/A   WCI   2
* HYSHAM       N/A       11   4  73 NW2        N/A
* LAME DEER    N/A        7   1  76 NW4        N/A
* REED POINT   N/A       18  10  71 SE2        N/A
* ROSCOE HILL  N/A       10   5  80 NE2        N/A
$$

REGIONAL REPORTS...DAKOTAS
CITY           SKY/WX    TMP DP  RH WIND       PRES   REMARKS
WILLISTON      CLOUDY     9   3  76 N7        30.06R WCI  -2
DICKINSON      MOCLDY     9   1  70 S8        29.98S WCI  -3
BEACH          CLOUDY    14   9  80 W12       30.01R
CROSBY         CLOUDY     0  -2  91 NW12      30.09R WCI -17
TIOGA          CLEAR      7   5  91 SW5       30.05R WCI  -2
WATFORD CITY   MOCLDY     9   3  76 CALM      30.01S
BISMARCK       MOCLDY     9   0  66 SE12      30.13S WCI  -6
GRAND FORKS    PTCLDY     3  -6  66 S13       30.29F WCI -14
FARGO          PTCLDY     7  -2  66 S15       30.34F WCI -10
BUFFALO SD     CLEAR      9   3  76 SW3       29.92R
RAPID CITY     PTCLDY     9   5  84 SE3       30.00F
$$

REGIONAL REPORTS...WYOMING/IDAHO/WASHINGTON
CITY           SKY/WX    TMP DP  RH WIND       PRES   REMARKS
GILLETTE       CLEAR      7   3  83 NW8       29.96R WCI  -6
SHERIDAN       CLOUDY    12   5  73 NW15      30.02R WCI  -4
CODY           CLOUDY    12  12 100 NE7       29.92R WCI   1
YELLOWSTONE LA PTCLDY    -6 -11  78 CALM      29.77S
SALMON         MOCLDY    30  12  47 E9        29.79R WCI  22
MULLAN PASS    PTCLDY    14   7  73 E9        29.79S WCI   2
SAND POINT     CLEAR     32   9  38 NE22G30   29.98R WCI  19
SPOKANE        MOCLDY    34  12  40 NE14      29.90R WCI  24
$$

REGIONAL REPORTS...ALBERTA
CITY           SKY/WX    TMP DP  RH WIND       PRES   REMARKS
CALGARY        FAIR      12   9  88 W8        30.12S
LETHBRIDGE     LGT SNOW   9   7  91 W5        30.17S
MEDICINE HAT   LGT SNOW   5   3  91 CALM      30.21S
EDMONTON       N/A        1  -4  79 SW7       30.17S WCI -12
WATERTON GATE  N/A       10   7  88 NE2        N/A
CARDSTON       N/A       10   9  96 NW5        N/A   WCI   1
MILK RIVER     N/A        7   5  91 N5         N/A   WCI  -2
$$

REGIONAL REPORTS...SASKATCHEWAN
CITY           SKY/WX    TMP DP  RH WIND       PRES   REMARKS
SWIFT CURRENT  LGT SNOW   3   1  91 NW14      30.09S WCI -15
REGINA         FAIR     -13 -17  82 NW2       30.11F
VAL MARIE      N/A        9   7  91 NW3        N/A
ASSINIBOIA     N/A        0  -4  83 NW8        N/A   WCI -14
CORONACH       N/A       -2  -6  83 NW6        N/A   WCI -14

$$




USA.gov is the U.S. government's official web portal to all federal, state and local government web resources and services.